Regional Weather Roundup
Issued by NWS

Home | Current Version | Previous Version | Text Only | Print | Product List | Glossary On
Versions: 1 2 3 4 5 6 7 8 9 10 11 12 13 14 15 16 17 18 19 20 21 22 23 24 25 26 27 28 29 30 31 32 33 34 35 36 37 38 39 40 41 42 43 44 45 46 47 48 49 50
000
ASUS45 KBOI 232010
RWRID
WEATHER ROUNDUP FOR IDAHO
NATIONAL WEATHER SERVICE BOISE ID
200 PM MDT SAT AUG 23 2014

NOTE: "FAIR" INDICATES FEW OR NO CLOUDS BELOW 12000 FEET
WITH NO SIGNIFICANT WEATHER AND/OR OBSTRUCTIONS TO VISIBILITY

IDZ012-014-232100-
SOUTHWEST IDAHO


CITY           SKY/WX    TMP DP  RH WIND       PRES   REMARKS
BOISE          SUNNY     72  42  34 NW12G21   30.04F
CALDWELL       SUNNY     75  43  31 NW14      30.06F
MOUNTAIN HOME  MOSUNNY   74  41  29 NW22G31   30.02F
$$

IDZ016-017-232100-
SOUTHCENTRAL IDAHO


CITY           SKY/WX    TMP DP  RH WIND       PRES   REMARKS
BURLEY         MOSUNNY   66  45  46 W16G23    30.05F
JEROME         MOSUNNY   67  45  45 SW18      30.06F
TWIN FALLS     MOSUNNY   68  46  45 W15G25    30.07S
$$

IDZ019>023-232100-
SOUTHEAST IDAHO


CITY           SKY/WX    TMP DP  RH WIND       PRES   REMARKS
IDAHO FALLS    LGT RAIN  53  50  89 S10       30.08R
POCATELLO      PTSUNNY   62  49  62 W14       30.07F
REXBURG        CLOUDY    58  45  62 SW13      30.05S
$$

IDZ006-010-011-018-031-032-232100-
CENTRAL IDAHO MOUNTAINS


CITY           SKY/WX    TMP DP  RH WIND       PRES   REMARKS
MCCALL         CLOUDY    61  41  47 N10       30.10F
STANLEY          N/A     51  43  74 N3        30.15F
SALMON         CLOUDY    55  43  62 N14       30.09S
CHALLIS        LGT RAIN  55  46  71 VRB3      30.10F
$$

IDZ002-004-006-007-026-232100-
NORTHERN IDAHO


CITY           SKY/WX    TMP DP  RH WIND       PRES   REMARKS
LEWISTON       SUNNY     75  50  41 W3        30.10S
LOWELL           N/A     63  57  81 CALM      30.13S
COEUR D`ALENE  SUNNY     72  45  37 N6        30.11F
MULLAN PASS    CLOUDY    52  41  66 CALM      30.23S
$$



USA.gov is the U.S. government's official web portal to all federal, state and local government web resources and services.